Starlink 31186

operational
NORAD ID: 59030 Int'l Des: 2024-038 Owner: SPXS Country: US Constellation: starlink
LEOCIRCULAR

Starlink 31186について

説明を読み込み中...

リアルタイム位置

3D地球を読み込み中...

次回通過

高度履歴

Altitude vs Time

uPlot chart will show altitude changes over time

軌道要素

1 59030U 24038H 25353.64375472 .00004557 00000-0 17505-3 0 9992
2 59030 43.0029 119.2933 0001763 278.5386 81.5266 15.27575432102519
Epoch: Dec 19, 2025 • Age: 5 hours

現在のステータス

高度 487.2 km
速度 7.63 km/s
衛星直下点 41.99°N, 173.36°W
打ち上げ日 Feb 25, 2024
運用期間 1.8 years
タイプ internet

技術仕様

分類 Payload
質量 730.00 kg
乾燥質量 700.00 kg
総質量 730.00 kg
長さ 0.30 m
直径 4.10 m
スパン 29.00 m
形状 Box + pan
製造者 SPXS
バスタイプ Starlink V2M
フェーズステータス In Orbit
所有者/国 SPXS/US

大規模コンステレーション

Loading constellations...